DW4238 Weather Reports


time (UTC)temp
C
wind
direction
speed
KPH
gust
KPH
rain 1hr
cm
rain 24hr
cm
rain mn
cm
humidity
%
barometer
mb
20260504043051 18 184 11.3 17.7 0.00 0.00 0.00 72 1017.2
20260504042534 18 175 11.3 19.3 0.00 0.00 0.00 71 1017.3
20260504041603 18 177 14.5 17.7 0.00 0.00 0.00 71 1017.3
20260504041045 18 181 12.9 19.3 0.00 0.00 0.00 71 1017.3
20260504040538 18 178 12.9 19.3 0.00 0.00 0.00 71 1017.4
20260504040139 18 178 11.3 17.7 0.00 0.00 0.00 71 1017.4
20260504035529 18 171 12.9 17.7 0.00 0.00 0.00 70 1017.3
20260504035033 18 175 12.9 17.7 0.00 0.00 0.00 71 1017.3
20260504034646 18 170 14.5 17.7 0.00 0.00 0.00 71 1017.3
20260504034035 19 178 9.7 17.7 0.00 0.00 0.00 70 1017.4
20260504033055 19 184 12.9 17.7 0.00 0.00 0.00 69 1017.3
20260504032538 19 171 11.3 14.5 0.00 0.00 0.00 69 1017.2
20260504031608 19 182 11.3 17.7 0.00 0.00 0.00 68 1017.0
20260504031113 20 180 12.9 16.1 0.00 0.00 0.00 67 1017.1
20260504030623 20 185 12.9 16.1 0.00 0.00 0.00 67 1017.1
20260504030055 20 186 12.9 17.7 0.00 0.00 0.00 66 1017.1
20260504025559 20 171 12.9 17.7 0.00 0.00 0.00 65 1017.0
20260504024617 20 177 16.1 17.7 0.00 0.00 0.00 63 1016.9
20260504024029 19 153 8.0 11.3 0.00 0.00 0.00 62 1016.8
20260504023050 20 202 4.8 8.0 0.00 0.00 0.00 60 1016.8
20260504022603 20 203 4.8 8.0 0.00 0.00 0.00 59 1016.6
20260504021606 20 206 4.8 6.4 0.00 0.00 0.00 59 1016.5
20260504021116 20 206 4.8 6.4 0.00 0.00 0.00 59 1016.6
20260504020137 20 207 4.8 6.4 0.00 0.00 0.00 57 1016.5
20260504015621 21 207 4.8 6.4 0.00 0.00 0.00 57 1016.6
20260504015132 21 208 4.8 6.4 0.00 0.00 0.00 57 1016.6
20260504014534 21 208 4.8 6.4 0.00 0.00 0.00 57 1016.5
20260504014039 21 208 4.8 6.4 0.00 0.00 0.00 56 1016.5
20260504013040 21 208 3.2 4.8 0.00 0.00 0.00 56 1016.4
20260504012554 21 208 3.2 6.4 0.00 0.00 0.00 55 1016.3
20260504011028 22 209 4.8 8.0 0.00 0.00 0.00 53 1016.3
20260504010641 22 209 4.8 8.0 0.00 0.00 0.00 54 1016.3
20260504010038 22 211 4.8 6.4 0.00 0.00 0.00 53 1016.3
20260504005548 22 211 4.8 8.0 0.00 0.00 0.00 53 1016.3
20260504004608 22 212 6.4 8.0 0.00 0.00 0.00 52 1016.4
20260504004059 22 217 4.8 9.7 0.00 0.00 0.00 52 1016.4
20260504003102 22 178 6.4 9.7 0.00 0.00 0.00 50 1016.6
20260504002614 23 172 8.0 9.7 0.00 0.00 0.00 49 1016.6
20260504001615 23 155 8.0 12.9 0.00 0.00 0.00 49 1016.7
20260504001119 23 191 8.0 11.3 0.00 0.00 0.00 49 1016.9
20260504000529 23 186 4.8 11.3 0.00 0.00 0.00 49 1016.9
20260504000120 23 194 6.4 12.9 0.00 0.00 0.00 48 1016.8
20260503235625 24 194 8.0 16.1 0.00 0.00 0.00 45 1016.8
20260503235114 24 138 9.7 16.1 0.00 0.00 0.00 46 1016.8
20260503234532 25 165 12.9 17.7 0.00 0.00 0.00 45 1016.8
20260503234044 25 184 9.7 20.9 0.00 0.00 0.00 46 1016.7
20260503233110 25 177 11.3 19.3 0.00 0.00 0.00 47 1016.8
20260503232601 25 167 12.9 17.7 0.00 0.00 0.00 47 1016.9
20260503231619 25 187 12.9 19.3 0.00 0.00 0.00 45 1017.0
20260503231031 25 188 9.7 16.1 0.00 0.00 0.00 46 1016.9
20260503230051 25 181 14.5 20.9 0.00 0.00 0.00 44 1017.0
20260503225534 25 175 12.9 19.3 0.00 0.00 0.00 46 1017.0
20260503225144 25 198 11.3 22.5 0.00 0.00 0.00 46 1017.0
20260503224546 25 141 16.1 29.0 0.00 0.00 0.00 44 1017.1
20260503224058 25 159 14.5 25.7 0.00 0.00 0.00 45 1017.1
20260503223558 25 172 17.7 24.1 0.00 0.00 0.00 45 1017.2
20260503223030 25 150 14.5 24.1 0.00 0.00 0.00 48 1017.1
20260503222540 25 185 9.7 24.1 0.00 0.00 0.00 48 1017.3
20260503221603 25 161 17.7 24.1 0.00 0.00 0.00 45 1017.4
20260503221113 25 184 11.3 17.7 0.00 0.00 0.00 43 1017.4
20260503220618 25 176 12.9 17.7 0.00 0.00 0.00 43 1017.4
20260503220048 25 157 12.9 17.7 0.00 0.00 0.00 44 1017.6
20260503215553 25 192 11.3 22.5 0.00 0.00 0.00 45 1017.6
20260503214622 25 171 11.3 20.9 0.00 0.00 0.00 44 1017.9
20260503214103 25 220 8.0 19.3 0.00 0.00 0.00 44 1018.0
20260503213612 25 184 11.3 19.3 0.00 0.00 0.00 47 1018.0
20260503213031 25 107 11.3 27.4 0.00 0.00 0.00 46 1017.9
20260503212541 25 126 12.9 27.4 0.00 0.00 0.00 45 1018.0
20260503211540 25 148 9.7 24.1 0.00 0.00 0.00 47 1017.9
20260503211050 25 140 19.3 27.4 0.00 0.00 0.00 45 1018.2
20260503210115 25 139 9.7 22.5 0.00 0.00 0.00 45 1018.5
20260503205603 25 153 16.1 22.5 0.00 0.00 0.00 42 1018.6
20260503205103 25 130 8.0 17.7 0.00 0.00 0.00 44 1018.6
20260503204534 25 150 8.0 17.7 0.00 0.00 0.00 42 1018.7
20260503204039 26 122 11.3 19.3 0.00 0.00 0.00 45 1018.7
20260503203044 26 171 11.3 19.3 0.00 0.00 0.00 45 1018.9
20260503202549 25 89 6.4 14.5 0.00 0.00 0.00 45 1019.0
20260503201547 25 142 6.4 17.7 0.00 0.00 0.00 45 1019.2
20260503201100 25 136 8.0 22.5 0.00 0.00 0.00 43 1019.3
20260503200123 25 126 16.1 20.9 0.00 0.00 0.00 44 1019.3
20260503195533 25 150 6.4 17.7 0.00 0.00 0.00 45 1019.2
20260503195125 25 115 9.7 17.7 0.00 0.00 0.00 43 1019.4
20260503194544 25 146 8.0 16.1 0.00 0.00 0.00 45 1019.5
20260503194029 25 143 8.0 16.1 0.00 0.00 0.00 47 1019.7
20260503193641 25 217 12.9 19.3 0.00 0.00 0.00 42 1019.8
20260503193044 25 184 12.9 19.3 0.00 0.00 0.00 42 1019.9
20260503192546 25 92 8.0 16.1 0.00 0.00 0.00 46 1020.0
20260503191600 25 137 11.3 20.9 0.00 0.00 0.00 43 1020.1
20260503191103 25 150 11.3 25.7 0.00 0.00 0.00 44 1020.1
20260503190124 25 126 9.7 17.7 0.00 0.00 0.00 46 1020.2
20260503185611 25 165 6.4 14.5 0.00 0.00 0.00 47 1020.3
20260503185124 25 157 8.0 22.5 0.00 0.00 0.00 46 1020.3
20260503184544 25 134 14.5 22.5 0.00 0.00 0.00 44 1020.5
20260503184053 25 198 4.8 14.5 0.00 0.00 0.00 46 1020.5
20260503183054 25 140 9.7 17.7 0.00 0.00 0.00 45 1020.7
20260503182544 25 137 8.0 17.7 0.00 0.00 0.00 49 1020.7
20260503181609 25 134 6.4 17.7 0.00 0.00 0.00 48 1020.9
20260503181114 24 144 11.3 22.5 0.00 0.00 0.00 47 1020.9
20260503180624 24 168 11.3 22.5 0.00 0.00 0.00 49 1020.9
20260503180050 24 126 8.0 17.7 0.00 0.00 0.00 49 1021.1
20260503175553 24 160 6.4 22.5 0.00 0.00 0.00 48 1021.1
20260503174613 24 138 6.4 14.5 0.00 0.00 0.00 50 1021.4
20260503174121 24 86 6.4 14.5 0.00 0.00 0.00 52 1021.5
20260503173559 24 115 6.4 14.5 0.00 0.00 0.00 53 1021.6
20260503173030 23 198 6.4 11.3 0.00 0.00 0.00 51 1021.6
20260503172616 23 205 4.8 16.1 0.00 0.00 0.00 52 1021.7
20260503172124 23 216 11.3 16.1 0.00 0.00 0.00 51 1021.8
20260503171530 23 149 3.2 14.5 0.00 0.00 0.00 51 1021.9
20260503171040 23 146 8.0 14.5 0.00 0.00 0.00 52 1022.0
20260503150108 21 195 8.0 11.3 0.00 0.00 0.00 65 1022.2
20260503131045 17 224 6.4 8.0 0.00 0.00 0.00 74 1021.4
20260503130552 16 250 3.2 6.4 0.00 0.00 0.00 76 1021.4
20260503110126 15 212 3.2 6.4 0.00 0.00 0.00 75 1020.2
20260503081553 16 261 0.0 0.0 0.00 0.00 0.00 70 1019.9
20260503081036 16 261 0.0 0.0 0.00 0.00 0.00 69 1019.9
20260503072614 17 261 3.2 4.8 0.00 0.00 0.00 67 1020.3
20260503072123 17 261 3.2 4.8 0.00 0.00 0.00 67 1020.4
20260503071542 17 261 1.6 4.8 0.00 0.00 0.00 66 1020.4
20260503071053 17 261 3.2 4.8 0.00 0.00 0.00 66 1020.4
20260503070616 17 261 3.2 4.8 0.00 0.00 0.00 65 1020.4
20260503055044 18 261 0.0 0.0 0.00 0.00 0.00 63 1020.4
20260503054544 18 261 0.0 0.0 0.00 0.00 0.00 62 1020.4
20260503054054 18 261 0.0 0.0 0.00 0.00 0.00 63 1020.4
20260503053540 18 261 0.0 0.0 0.00 0.00 0.00 63 1020.4
20260503053033 18 261 0.0 0.0 0.00 0.00 0.00 63 1020.4
20260503052542 18 261 0.0 0.0 0.00 0.00 0.00 62 1020.5
20260503052028 18 261 0.0 0.0 0.00 0.00 0.00 62 1020.5
20260503051553 18 261 0.0 0.0 0.00 0.00 0.00 62 1020.5
20260503051042 18 261 0.0 0.0 0.00 0.00 0.00 63 1020.4
20260503050543 18 261 0.0 0.0 0.00 0.00 0.00 63 1020.4
20260503050122 18 261 0.0 0.0 0.00 0.00 0.00 63 1020.3
20260503045529 18 261 0.0 0.0 0.00 0.00 0.00 63 1020.2
20260503044529 18 261 0.0 0.0 0.00 0.00 0.00 63 1020.3
20260503044142 18 261 0.0 0.0 0.00 0.00 0.00 62 1020.3
20260503043623 18 261 0.0 0.0 0.00 0.00 0.00 62 1020.4